This demonstration page uses our WeatherBlox Daily Observations layout. Learn more.

Left ArrowRight Arrow

40.92945, -100.16068

Hourly Observations for November 27, 2015

Temp ( °F °C ) Dew Point ( °F °C ) Humidity (%) Winds ( mph kmh ) Pressure ( in mb ) Visibility ( mi km ) Precip ( " mm )
12:15 am 00:15 Cloudy 21 -6 16 -9.1 79 79 N 13 20 30.62 1037 10 16 N/A
12:35 am 00:35 Cloudy 21 -6.1 16 -9 80 80 N 14 22 30.65 1038 10 16 N/A
12:55 am 00:55 Cloudy 21 -6.2 16 -9.1 80 80 N 16 26 30.65 1038 10 16 N/A
1:15 am 01:15 Cloudy 21 -6.2 16 -8.9 81 81 N 15 24 30.65 1038 10 16 N/A
1:35 am 01:35 Cloudy 21 -6.2 16 -8.8 82 82 N 15 24 30.62 1037 10 16 N/A
1:55 am 01:55 Cloudy 21 -6.2 16 -8.9 81 81 N 14 22 30.65 1038 10 16 N/A
2:15 am 02:15 Mostly Cloudy 21 -6.2 16 -9 81 81 N 15 24 30.65 1038 10 16 N/A
2:35 am 02:35 Cloudy 21 -6.1 16 -9 80 80 N 16 26 30.65 1038 10 16 N/A
2:55 am 02:55 Cloudy 21 -6.2 15 -9.5 78 78 N 15 24 30.68 1039 10 16 N/A
3:15 am 03:15 Cloudy 21 -6.2 15 -9.3 79 79 N 17 28 30.68 1039 10 16 N/A
3:35 am 03:35 Cloudy 20 -6.4 15 -9.4 80 80 N 16 26 30.68 1039 10 16 N/A
3:55 am 03:55 Cloudy 20 -6.5 15 -9.6 79 79 N 17 28 30.68 1039 10 16 N/A
4:15 am 04:15 Cloudy with Light Snow 20 -6.5 15 -9.5 80 80 N 17 28 30.68 1039 7 11 N/A
4:35 am 04:35 Cloudy 20 -6.4 15 -9.5 79 79 N 17 28 30.65 1038 10 16 N/A
4:55 am 04:55 Cloudy 21 -6.3 15 -9.5 78 78 N 18 30 30.68 1039 10 16 N/A
5:15 am 05:15 Cloudy 20 -6.4 15 -9.5 79 79 N 20 31 30.68 1039 10 16 N/A
5:35 am 05:35 Cloudy 20 -6.6 15 -9.7 79 79 N 18 30 30.68 1039 10 16 N/A
5:55 am 05:55 Cloudy 20 -6.6 14 -9.8 78 78 N 15 24 30.71 1040 10 16 N/A
6:15 am 06:15 Cloudy 20 -6.6 14 -9.9 78 78 N 13 20 30.71 1040 10 16 N/A
6:35 am 06:35 Cloudy 20 -6.5 14 -10 76 76 N 15 24 30.71 1040 10 16 N/A
6:55 am 06:55 Cloudy 20 -6.7 14 -10.2 76 76 N 13 20 30.74 1041 10 16 N/A
7:15 am 07:15 Cloudy 20 -6.7 13 -10.3 76 76 N 14 22 30.74 1041 10 16 N/A
7:35 am 07:35 Cloudy 20 -6.7 13 -10.3 76 76 N 15 24 30.74 1041 10 16 N/A
7:55 am 07:55 Cloudy 20 -6.7 14 -10.2 76 76 N 14 22 30.74 1041 10 16 N/A
8:15 am 08:15 Cloudy 20 -6.6 14 -10.2 76 76 N 15 24 30.74 1041 10 16 N/A
8:35 am 08:35 Cloudy 20 -6.5 14 -10.1 76 76 N 13 20 30.71 1040 10 16 N/A
8:55 am 08:55 Cloudy 20 -6.5 13 -10.4 74 74 N 12 19 30.71 1040 10 16 N/A
9:15 am 09:15 Cloudy 21 -6.3 13 -10.3 74 74 N 10 17 30.71 1040 10 16 N/A
9:35 am 09:35 Cloudy 21 -6.1 14 -10 74 74 N 12 19 30.71 1040 10 16 N/A
9:55 am 09:55 Cloudy 21 -6 14 -10.2 73 73 N 14 22 30.71 1040 10 16 N/A
10:15 am 10:15 Cloudy 22 -5.7 13 -10.4 70 70 N 13 20 30.71 1040 10 16 N/A
10:35 am 10:35 Cloudy 23 -5.2 14 -10.1 69 69 N 12 19 30.71 1040 10 16 N/A
10:55 am 10:55 Cloudy 23 -4.9 14 -10 68 68 N 14 22 30.71 1040 10 16 N/A
11:15 am 11:15 Cloudy 24 -4.6 14 -10 66 66 N 13 20 30.71 1040 10 16 N/A
11:35 am 11:35 Cloudy 24 -4.7 13 -10.4 65 65 N 12 19 30.71 1040 10 16 N/A
11:55 am 11:55 Cloudy 24 -4.5 13 -10.4 64 64 N 13 20 30.71 1040 10 16 N/A
12:15 pm 12:15 Cloudy 24 -4.5 13 -10.5 63 63 N 10 17 30.71 1040 10 16 N/A
12:35 pm 12:35 Cloudy 24 -4.5 13 -10.6 63 63 N 10 17 30.71 1040 10 16 N/A
12:55 pm 12:55 Cloudy 25 -4 14 -10.2 62 62 N 10 17 30.71 1040 10 16 N/A
1:15 pm 13:15 Cloudy 25 -4 13 -10.3 62 62 N 7 11 30.71 1040 10 16 N/A
1:35 pm 13:35 Cloudy 26 -3.6 13 -10.5 59 59 N 12 19 30.68 1039 10 16 N/A
1:55 pm 13:55 Cloudy 26 -3.3 13 -10.8 57 57 N 10 17 30.65 1038 10 16 N/A
2:15 pm 14:15 Cloudy 27 -3 13 -10.3 58 58 N 10 17 30.65 1038 10 16 N/A
2:35 pm 14:35 Cloudy 26 -3.1 14 -10.2 58 58 NNE 12 19 30.62 1037 10 16 N/A
2:55 pm 14:55 Cloudy 26 -3.1 14 -10.1 59 59 NNE 13 20 30.62 1037 10 16 N/A
3:15 pm 15:15 Cloudy 26 -3.2 14 -10.2 59 59 NNE 9 15 30.62 1037 10 16 N/A
3:35 pm 15:35 Cloudy 26 -3.1 13 -10.3 58 58 NNE 8 13 30.62 1037 10 16 N/A
3:55 pm 15:55 Cloudy 26 -3.2 13 -10.3 58 58 NNE 10 17 30.62 1037 10 16 N/A
4:15 pm 16:15 Cloudy 26 -3.3 14 -10.2 59 59 NNE 10 17 30.62 1037 10 16 N/A
4:35 pm 16:35 Cloudy 26 -3.3 14 -10.2 59 59 NE 8 13 30.62 1037 10 16 N/A
4:55 pm 16:55 Cloudy 26 -3.5 14 -10.1 61 61 NNE 8 13 30.62 1037 10 16 N/A
5:15 pm 17:15 Cloudy 26 -3.5 14 -9.8 62 62 NNE 9 15 30.62 1037 10 16 N/A
5:35 pm 17:35 Cloudy 26 -3.6 14 -9.9 62 62 NE 8 13 30.65 1038 10 16 N/A
5:55 pm 17:55 Cloudy 26 -3.6 15 -9.5 64 64 NNE 8 13 30.65 1038 10 16 N/A
6:15 pm 18:15 Cloudy 25 -3.7 15 -9.2 66 66 NNE 7 11 30.65 1038 10 16 N/A
6:35 pm 18:35 Cloudy 25 -3.8 16 -9.1 67 67 NNE 8 13 30.65 1038 10 16 N/A
6:55 pm 18:55 Cloudy 25 -3.9 15 -9.2 67 67 NNE 8 13 30.65 1038 10 16 N/A
7:15 pm 19:15 Cloudy 25 -3.9 16 -9.1 68 68 NNE 8 13 30.65 1038 10 16 N/A
7:35 pm 19:35 Cloudy 25 -3.9 16 -8.9 69 69 NNE 8 13 30.59 1036 10 16 N/A
7:55 pm 19:55 Cloudy 25 -3.9 16 -8.7 70 70 NNE 10 17 30.59 1036 10 16 N/A
8:15 pm 20:15 Cloudy 25 -4 16 -9 69 69 NNE 9 15 30.65 1038 10 16 N/A
8:35 pm 20:35 Cloudy 25 -4 16 -8.8 70 70 NE 7 11 30.65 1038 10 16 N/A
8:55 pm 20:55 Cloudy 25 -4 16 -8.8 70 70 NNE 5 7 30.65 1038 10 16 N/A
9:15 pm 21:15 Cloudy 25 -4 16 -8.8 70 70 N 5 7 30.65 1038 10 16 N/A
9:35 pm 21:35 Cloudy 25 -3.8 17 -8.6 70 70 NNE 3 6 30.65 1038 10 16 N/A
9:55 pm 21:55 Cloudy 25 -4 16 -8.7 70 70 NE 5 7 30.65 1038 10 16 N/A
10:15 pm 22:15 Cloudy 25 -3.8 17 -8.6 70 70 NE 6 9 30.59 1036 10 16 N/A
10:35 pm 22:35 Cloudy 25 -3.8 16 -8.7 69 69 NNE 6 9 30.59 1036 10 16 N/A
10:55 pm 22:55 Cloudy 25 -3.8 17 -8.6 70 70 NNE 6 9 30.59 1036 10 16 N/A
11:15 pm 23:15 Cloudy 25 -3.8 17 -8.6 70 70 N 7 11 30.56 1035 10 16 N/A
11:35 pm 23:35 Cloudy 25 -3.8 17 -8.5 70 70 N 6 9 30.56 1035 10 16 N/A
11:55 pm 23:55 Cloudy 25 -3.8 16 -8.7 69 69 N 7 11 30.56 1035 10 16 N/A

Powered by AerisWeather